Tracking 31011 objects as of 13-Jul-2025
HD Live streaming from Space Station
objects crossing your sky now

STARLINK-6207

Track STARLINK-6207 now!
10-day predictions
STARLINK-6207 is classified as:


NORAD ID: 56900
Int'l Code: 2023-083AA
Perigee: 565.2 km
Apogee: 567.2 km
Inclination: 43.0 °
Period: 95.8 minutes
Semi major axis: 6937 km
RCS: Unknown
Launch date: June 12, 2023
Source: United States (US)
Launch site: AIR FORCE EASTERN TEST RANGE (AFETR)
Your satellite tracking list
Your tracking list is empty




NASA's NSSDC Master Catalog

Two Line Element Set (TLE):
1 56900U 23083AA  25193.63285310 -.00000073  00000-0  96442-5 0  9995
2 56900  43.0048 293.6943 0001395 271.8800  88.1883 15.02537816115675
Source of the keplerian elements: AFSPC